Location: Équennes
(49.7375°N, 1.9622°E)
Time: 22:14:49
(UTC+00:00)

ATLAS 5 CENTAUR R/B - Pass Details

Date: 28 January 2023
Orbit: 460 x 1178 km, 63.3° (Epoch: 24 March)

Event Time Altitude Azimuth Distance (km) Brightness Sun altitude
Rises 18:57:06 0° 276° (W) 2,595 6.2 -22.0°
Reaches altitude 10° 18:59:39 10° 296° (WNW) 1,790 4.8 -22.5°
Maximum altitude 19:02:32 19° 343° (NNW) 1,419 3.5 -22.9°
Enters shadow 19:03:47 17° 5° (N) 1,554 3.5 -23.1°
